Weather History for KLAW - August, 2013

Change the Weather History Date:

Thursday, August 1, 2013

  Actual Average Record
Temperature  
Mean Temperature 85 °F -  
Max Temperature 95 °F 95 °F 113 °F (2012)
Min Temperature 75 °F 70 °F 60 °F (1982)
Cooling Degree Days 20    
Growing Degree Days 35 (Base 50)    
Moisture  
Dew Point 70 °F    
Average Humidity 65    
Maximum Humidity 85    
Minimum Humidity 37    
Precipitation  
Precipitation 0.00 in - - ()
Sea Level Pressure  
Sea Level Pressure 29.99 in    
Wind  
Wind Speed 7 mph (East)    
Max Wind Speed 14 mph    
Max Gust Speed -    
Visibility 10 miles    
Events      
Averages and records for this station are not official NWS values.
T = Trace of Precipitation, MM = Missing Value Source: NWS Daily Summary

Daily Weather History Graph

Daily Weather History Graph

Search for Another Location

Airport or City:

Trip Planner

Search our weather history database for the weather conditions in past years. The results will help you decide how hot, cold, wet, or windy it might be!

Date:

Astronomy

Aug. 01, 2013 Rise Set
Actual Time 6:44 AM CDT 8:35 PM CDT
Civil Twilight 6:16 AM CDT 9:02 PM CDT
Nautical Twilight 5:43 AM CDT 9:36 PM CDT
Astronomical Twilight 5:07 AM CDT 10:11 PM CDT
Moon 2:22 AM CDT (8/1) 4:43 PM CDT (8/1)
Length of Visible Light 14h 46m
Length of Day
13h 51m
Waning Crescent, 23% of the Moon is Illuminated
Aug 1
Waning Crescent
Aug 6
New
Aug 14
First Quarter
Aug 20
Full
Aug 28
Last Quarter

Hourly Weather History & Observations

Time (CDT) Temp. Heat Index Dew Point Humidity Pressure Visibility Wind Dir Wind Speed Gust Speed Precip Events Conditions
12:53 AM 79.0 °F - 71.1 °F 77% 30.03 in 10.0 mi NNE 6.9 mph - N/A   Clear
1:53 AM 79.0 °F - 71.1 °F 77% 30.03 in 10.0 mi NNE 6.9 mph - N/A   Clear
2:53 AM 78.1 °F - 71.1 °F 79% 30.02 in 10.0 mi NE 6.9 mph - N/A   Clear
3:53 AM 77.0 °F - 71.1 °F 82% 30.01 in 10.0 mi NE 5.8 mph - N/A   Clear
4:53 AM 75.9 °F - 71.1 °F 85% 30.02 in 10.0 mi Calm Calm - N/A   Clear
5:53 AM 75.9 °F - 71.1 °F 85% 30.03 in 10.0 mi NNE 9.2 mph - N/A   Clear
6:53 AM 75.9 °F - 71.1 °F 85% 30.03 in 10.0 mi NE 8.1 mph - N/A   Clear
7:53 AM 77.0 °F - 71.1 °F 82% 30.04 in 10.0 mi NNE 6.9 mph - N/A   Clear
8:53 AM 80.1 °F 83.8 °F 72.0 °F 76% 30.05 in 10.0 mi ENE 6.9 mph - N/A   Clear
9:53 AM 84.0 °F 89.6 °F 72.0 °F 67% 30.05 in 10.0 mi ENE 8.1 mph - N/A   Clear
10:53 AM 87.1 °F 92.8 °F 71.1 °F 59% 30.04 in 10.0 mi East 6.9 mph - N/A   Clear
11:53 AM 90.0 °F 96.9 °F 72.0 °F 55% 30.04 in 10.0 mi East 6.9 mph - N/A   Partly Cloudy
12:53 PM 90.0 °F 94.5 °F 69.1 °F 50% 30.02 in 10.0 mi Calm Calm - N/A   Clear
1:53 PM 91.9 °F 95.9 °F 68.0 °F 45% 30.00 in 10.0 mi ENE 5.8 mph - N/A   Clear
2:53 PM 93.0 °F 97.4 °F 68.0 °F 44% 29.98 in 10.0 mi Variable 3.5 mph - N/A   Clear
3:53 PM 93.9 °F 99.1 °F 69.1 °F 44% 29.96 in 10.0 mi East 5.8 mph - N/A   Clear
4:53 PM 95.0 °F 97.4 °F 64.9 °F 37% 29.94 in 10.0 mi SE 12.7 mph - N/A   Clear
5:53 PM 93.9 °F 100.3 °F 70.0 °F 46% 29.92 in 10.0 mi ESE 13.8 mph - N/A   Clear
6:53 PM 91.9 °F 96.9 °F 69.1 °F 47% 29.91 in 10.0 mi SSE 10.4 mph - N/A   Clear
7:53 PM 89.1 °F 95.0 °F 71.1 °F 55% 29.91 in 10.0 mi SE 6.9 mph - N/A   Clear
8:53 PM 84.9 °F 90.1 °F 71.1 °F 63% 29.92 in 10.0 mi ESE 5.8 mph - N/A   Clear
9:53 PM 82.9 °F 88.0 °F 72.0 °F 69% 29.92 in 10.0 mi ESE 6.9 mph - N/A   Clear
10:53 PM 81.0 °F 85.2 °F 72.0 °F 74% 29.91 in 10.0 mi ESE 5.8 mph - N/A   Clear
11:53 PM 80.1 °F 83.6 °F 71.1 °F 74% 29.91 in 10.0 mi ESE 5.8 mph - N/A   Clear